Home   Weather   Zwickau   Past weeks

Flag for Germany Past Weather in Zwickau, Saxony, Germany — Yesterday and Last 2 Weeks

Now
18 °F

Clear.


Feels Like: 18 °F
Forecast: 19 / 35 °F
Wind: 1 mph from East

Location: Karlovy Vary Airport

Current Time: Dec 4, 2016 at 5:08:34 am

Latest Report: Dec 4, 2016 at 4:00 am


Visibility: 10 mi

Pressure: 30.30 "Hg

Humidity: 93%

Dew Point: 16 °F

Location of ZwickauLocation

Past Weather in Zwickau — Graph

°F

Zwickau Temperature Yesterday

Maximum temperature yesterday: 37 °F (at 2:00 pm)
Minimum temperature yesterday: 18 °F (at 7:00 am)
Average temperature yesterday: 26 °F

High & Low Weather Summary for the Past Weeks

 TemperatureHumidityPressure
High45 °F (Nov 20, 2:30 pm)100% (Nov 19, 2:00 pm)30.48 "Hg (Nov 19, 2:00 pm)
Low14 °F (Nov 29, 6:00 am)45% (Dec 3, 2:00 pm)29.74 "Hg (Nov 19, 12:30 pm)
Average35 °F86%30.07 "Hg
* Reported Nov 19 3:00 am — Dec 4 3:00 am, Zwickau, Weather by CustomWeather, © 2016

Note: Actual official high and low records may vary slightly from our data, if they occured in-between our weather recording intervals... More about our weather records

Advertising

Zwickau Weather History for the Previous 24 Hours

Scroll right to see more
 ConditionsComfort  
Time TempWeatherWind HumidityBarometerVisibility
3:00 am
Sun, Dec 4
18 °FClear.3 mph93%30.30 "Hg10 mi
2:00 am18 °FClear.5 mph93%30.30 "Hg10 mi
1:00 am18 °FClear.2 mph93%30.27 "Hg10 mi
12:00 am18 °FClear.3 mph93%30.27 "Hg10 mi
11:00 pm
Sat, Dec 3
19 °FClear.2 mph93%30.27 "Hg10 mi
10:00 pm19 °FClear.3 mph93%30.27 "Hg10 mi
9:00 pm21 °FClear.1 mph86%30.27 "Hg10 mi
8:00 pm23 °FClear.5 mph86%30.27 "Hg10 mi
7:30 pm23 °FClear.2 mph86%30.24 "Hg10 mi
7:00 pm25 °FClear.3 mph80%30.24 "Hg10 mi
6:30 pm23 °FClear.3 mph93%30.24 "Hg10 mi
6:00 pm25 °FClear.3 mph86%30.24 "Hg10 mi
5:30 pm27 °FClear.3 mph80%30.24 "Hg10 mi
5:00 pm27 °FClear.2 mph80%30.24 "Hg10 mi
4:30 pm28 °FClear.1 mph80%30.21 "Hg10 mi
4:00 pm30 °FSunny.1 mph75%30.21 "Hg10 mi
3:30 pm32 °FSunny.No wind69%30.21 "Hg10 mi
3:00 pm34 °FSunny.3 mph60%30.21 "Hg10 mi
2:30 pm34 °FSunny.5 mph65%30.21 "Hg10 mi
2:00 pm37 °FSunny.2 mph45%30.21 "Hg10 mi
1:30 pm36 °FSunny.5 mph52%30.21 "Hg10 mi
1:00 pm34 °FPassing clouds.6 mph60%30.21 "HgN/A
12:30 pm34 °FPassing clouds.7 mph65%30.21 "HgN/A
12:00 pm34 °FPassing clouds.5 mph65%30.21 "HgN/A
11:30 am30 °FSunny.3 mph80%30.21 "Hg10 mi
11:00 am30 °FSunny.1 mph80%30.21 "Hg10 mi
10:30 am28 °FSunny.No wind80%30.21 "Hg10 mi
10:00 am28 °FSunny.2 mph80%30.21 "Hg10 mi
9:30 am27 °FSunny.2 mph86%30.21 "Hg10 mi
9:00 am23 °FSunny.3 mph86%30.21 "Hg10 mi
8:30 am19 °FSunny.3 mph93%30.18 "Hg10 mi
8:00 am18 °FSunny.2 mph93%30.18 "Hg10 mi
7:30 am19 °FClear.1 mph93%30.18 "Hg10 mi
7:00 am18 °FClear.2 mph93%30.15 "Hg10 mi
6:00 am19 °FClear.3 mph93%30.15 "Hg10 mi
5:00 am19 °FClear.3 mph93%30.15 "Hg10 mi
Weather by CustomWeather, © 2016

See weather overviewHow to use our weather pages